Tracking 35331 objects as of 15-Sep-2026
HD Live streaming from Space Station
objects crossing your sky now

DEAR-1


DEAR-1 is no longer on orbit


NORAD ID: 58586
Int'l Code: 2023-199A
Launch date: December 17, 2023
Source: People's Republic of China (PRC)
Launch site: Jiuquan Satellite Launch Center, China (JSC)
Decay date: 2025-10-01
Your satellite tracking list
Your tracking list is empty




NASA's NSSDC Master Catalog

Two Line Element Set (TLE):
1 58586U 23199A   25273.39716029  .04250344  24957-5  11436-2 0  9993
2 58586  97.4335  54.1609 0008829 276.0618  83.9669 16.28189484100864
Source of the keplerian elements: AFSPC